Regional Weather Roundup
Issued by NWS

Home | Current Version | Previous Version | Text Only | Print | Product List | Glossary Off
Versions: 1 2 3 4 5 6 7 8 9 10 11 12 13 14 15 16 17 18 19 20 21 22 23 24 25 26 27 28 29 30 31 32 33 34 35 36 37 38 39 40 41 42 43 44 45 46 47 48 49 50

000
ASUS45 KBOU 240107
RWRCO

WEATHER ROUNDUP FOR COLORADO
NATIONAL WEATHER SERVICE DENVER/BOULDER CO
700 PM MDT THU MAR 23 2017

NOTE: "FAIR" INDICATES FEW OR NO CLOUDS BELOW 12000 FEET WITH NO
SIGNIFICANT WEATHER AND/OR OBSTRUCTIONS TO VISIBILITY.

COZ001>005-013-030-031-240200-
...NORTHWEST COLORADO...

CITY           SKY/WX    TMP DP  RH WIND       PRES   REMARKS
CRAIG          CLOUDY    51  30  44 W14       29.77R
HAYDEN         FAIR      48  27  43 NW15      29.77R
MEEKER         LGT RAIN  47  35  63 NW20      29.78R
MOUNT WERNER   NOT AVBL
STEAMBOAT SPGS MOCLDY    47  28  47 NW3       29.77R
WALDEN         NOT AVBL
$$

COZ006>008-011-240200-
...WEST CENTRAL VALLEYS...

CITY           SKY/WX    TMP DP  RH WIND       PRES   REMARKS
GRAND JUNCTION MOCLDY    49  40  71 E5        29.75S
MONTROSE       FAIR      45  37  73 SE9       29.78R
EAGLE          MOCLDY    45  32  61 E9        29.80S
RIFLE          MOCLDY    51  33  50 SE10      29.73R
DELTA          MOCLDY    50  36  57 CALM      29.78R
NUCLA          CLOUDY    41  34  75 NW8       29.83S
$$

COZ017>023-064>068-240200-
...SOUTHWEST COLORADO...

CITY           SKY/WX    TMP DP  RH WIND       PRES   REMARKS
DURANGO        LGT RAIN  38  35  89 W23G31    29.78R
CORTEZ         LGT RAIN  40  36  86 W9        29.82R FOG
PAGOSA SPRINGS FOG       33  33 100 E8        29.79F VSB 1/2 WCI  26
TELLURIDE      SNOW      31  29  95 W12G18    29.82S VSB 1/2 WCI  21
WOLF CREEK PAS SNOW      19  19 100 MISG      29.86F VSB 1/4
$$

COZ009-010-012-014-032>034-037-058>063-240200-
...CENTRAL COLORADO...

CITY           SKY/WX    TMP DP  RH WIND       PRES   REMARKS
ASPEN          LGT SNOW  33  33 100 N3        29.82S VSB 1
BUENA VISTA    FAIR      46  23  41 NW13G18   29.71F
COPPER MTN     SNOW      28  23  80 MISG      29.89R VSB<1/4
BERTHOUD PASS  CLOUDY    21  12  68 N9G22     29.90S WCI  11
COTTONWOOD PAS FAIR      39  25  56 SW13G18   29.77F
GUNNISON       LGT RAIN  37  33  85 SW5       29.78S
KREMMLING      LGT RAIN  45  34  65 NE16      29.82S
LEADVILLE      CLOUDY    30  24  78 N20G28    29.81R WCI  17
MONARCH PASS   CLOUDY    27  23  86 W10       29.94S WCI  17
SALIDA         CLOUDY    50  26  38 CALM      29.78R
SUNLIGHT       CLOUDY    28  23  80 N3        29.88F
WILKERSON PASS FAIR      32  18  55 W5        29.85F WCI  27
$$

COZ069>075-240200-
...SAN LUIS VALLEY/SANGRE DE CRISTO MOUNTAINS...

CITY           SKY/WX    TMP DP  RH WIND       PRES   REMARKS
ALAMOSA        FAIR      43  28  55 S9        29.69F
LA VETA PASS   NOT AVBL
SAGUACHE       LGT RAIN  41  32  70 W7        29.72R
$$

COZ035-036-038>040-240200-
...NORTHERN COLORADO FRONT RANGE...

CITY           SKY/WX    TMP DP  RH WIND       PRES   REMARKS
DENVER INTL AP MOCLDY    66  16  14 NW17G28   29.60R
DMNS CITY PARK   N/A     64  15  15 W6G15     29.59R
AURORA         MOCLDY    64  15  14 W12       29.60R
FRONT RANGE AP NOT AVBL
ERIE MUNI ARPT FAIR      62  19  19 NW9       29.59R
BOULDER MUN AP FAIR      61  23  23 N10       29.59R
CENTENNIAL     MOCLDY    62  16  16 W14G24    29.60R
BROOMFIELD     MOCLDY    63  18  17 NW10      29.61R
FORT COLLINS   FAIR      63  24  22 N22       29.60R
LONGMONT       FAIR      63  25  23 NW12      29.61R
$$

COZ041-046-047-076>085-087-088-240200-
...PIKES PEAK/PALMER DIVIDE AND SOUTHERN FOOTHILLS...

CITY           SKY/WX    TMP DP  RH WIND       PRES   REMARKS
COLO. SPRINGS  MOCLDY    62  12  14 SW10      29.59R
A. F. ACADEMY  MOCLDY    61  15  16 NW9       29.61R
SCHRIEVER AFB  FAIR      60  12  15 SW9       29.60R
ELLICOTT         N/A    N/A N/A N/A CALM      29.58R
FALCON         FAIR      58  13  17 W8        29.64F
FORT CARSON    MOCLDY    63  16  16 SW9       29.55
LIMON          FAIR      59  22  24 CALM      29.59R
MONUMENT HILL  FAIR      55  14  19 S22G29    29.67R
TRINIDAD       FAIR      64  14  14 W13G24    29.54R
$$

COZ042>045-048>051-090-091-240200-
...NORTHEAST COLORADO...

CITY           SKY/WX    TMP DP  RH WIND       PRES   REMARKS
GREELEY ARPT   FAIR      65  29  25 N24       29.59R
AKRON          FAIR      68  22  17 E5        29.54S
BURLINGTON     FAIR      72  25  17 SW17      29.51R
WRAY           NOT AVBL
STERLING       FAIR      70  39  32 E8        29.51R
HOLYOKE        FAIR      73  43  33 CALM      29.54R
FORT MORGAN    CLOUDY    71  16  12 W9G18     29.56R
$$

COZ086-089-092>099-240200-
...SOUTHEAST COLORADO...

CITY           SKY/WX    TMP DP  RH WIND       PRES   REMARKS
PUEBLO         FAIR      67  23  19 W12       29.50R
LA JUNTA       FAIR      73  20  13 S10       29.45F
LAMAR          FAIR      70  27  20 SW3       29.42F
SPRINGFIELD      N/A     70  41  34 S24G37    29.50R
$$



USA.gov is the U.S. government's official web portal to all federal, state and local government web resources and services.